Date String (YYYY-MM-DD hh:mm:ss) UTC,Instrument flags,Ambient pressure (hPa),Sample flow (lpm),Bypass flow (lpm),Sample temperature (°C),Ambient temperature (°C),ASC tube jacket temperature (°C),LED temperature (°C),Box temperature (°C),Sample RH (%),Span deviation,Mass concentration (μg/m³),Mass concentration (μg/m³),Mass concentration (μg/m³)
DateTimeUTC,F1_M11,P_M11,Q1_M11,Q2_M11,T1_M11,T2_M11,T3_M11,T4_M11,T5_M11,U1_M11,ZSPAN_M11,X0_M11,X2_M11,X1_M11
2021-09-17 06:00:00,,0826.2,5.00,0.00,29.5,28.6,00.0,38.5,31.4,13.8,0001.2,0022.46,0007.32,0006.05
2021-09-17 06:01:00,,0826.3,4.99,0.00,29.6,28.6,00.0,38.5,31.4,13.7,0000.6,0023.45,0007.59,0006.20
2021-09-17 06:02:00,,0826.2,5.00,0.00,29.6,28.7,00.0,38.5,31.4,14.3,0000.4,0025.99,0007.91,0006.33
2021-09-17 06:03:00,,0826.3,5.00,0.00,29.6,28.7,00.0,38.6,31.4,15.3,0000.4,0027.94,0008.33,0006.48
2021-09-17 06:04:00,,0826.4,5.01,0.00,29.6,28.8,00.0,38.6,31.5,15.6,0000.4,0029.86,0008.65,0006.61
2021-09-17 06:05:00,,0826.5,5.01,0.00,29.7,28.8,00.0,38.6,31.5,15.6,0000.3,0031.53,0008.94,0006.77
2021-09-17 06:06:00,,0826.5,4.99,0.00,29.7,28.8,00.0,38.6,31.5,15.5,0000.1,0032.33,0009.13,0006.88
2021-09-17 06:07:00,,0826.5,4.99,0.00,29.7,28.9,00.0,38.7,31.6,15.6,0000.2,0034.07,0009.26,0007.00
2021-09-17 06:08:00,,0826.5,5.00,0.00,29.8,28.9,00.0,38.7,31.6,15.9,0000.5,0033.42,0009.33,0007.09
2021-09-17 06:09:00,,0826.6,4.99,0.00,29.8,29.0,00.0,38.7,31.7,16.2,0000.7,0029.67,0009.37,0007.16
2021-09-17 06:10:00,,0826.5,5.00,0.00,29.8,29.0,00.0,38.7,31.7,16.4,0000.6,0028.05,0009.40,0007.23
2021-09-17 06:11:00,,0826.6,5.01,0.00,29.9,29.1,00.0,38.8,31.7,16.5,0000.7,0027.20,0009.51,0007.31
2021-09-17 06:12:00,,0826.5,4.99,0.00,29.9,29.1,00.0,38.8,31.7,16.8,0001.8,0027.12,0009.61,0007.40
2021-09-17 06:13:00,,0826.5,5.01,0.00,29.9,29.1,00.0,38.8,31.8,17.0,0002.0,0027.09,0009.64,0007.48
2021-09-17 06:14:00,,0826.7,5.00,0.00,29.9,29.1,00.0,38.9,31.8,17.0,0001.9,0027.57,0009.60,0007.56
2021-09-17 06:15:00,,0826.7,4.99,0.00,30.0,29.1,00.0,38.9,31.8,17.1,0002.0,0027.37,0009.64,0007.61
2021-09-17 06:16:00,,0826.6,5.01,0.00,30.0,29.2,00.0,38.9,31.9,17.1,0002.5,0026.83,0009.63,0007.64
2021-09-17 06:17:00,,0826.7,5.00,0.00,30.0,29.2,00.0,38.9,31.9,17.2,0002.6,0026.39,0009.65,0007.68
2021-09-17 06:18:00,,0826.7,5.00,0.00,30.0,29.2,00.0,39.0,31.9,17.2,0002.8,0025.41,0009.76,0007.69
2021-09-17 06:19:00,,0826.7,4.99,0.00,30.1,29.3,00.0,39.0,31.9,17.2,0002.6,0025.92,0009.86,0007.70
2021-09-17 06:20:00,,0826.8,5.01,0.00,30.1,29.3,00.0,39.0,31.9,17.2,0002.7,0026.19,0009.89,0007.72
2021-09-17 06:21:00,,0826.8,5.00,0.00,30.1,28.4,00.0,39.0,31.7,17.2,0002.8,0026.23,0009.86,0007.72
2021-09-17 06:22:00,,0827.0,4.99,0.00,29.9,26.6,00.0,39.0,31.2,17.4,0002.8,0027.94,0009.83,0007.72
2021-09-17 06:23:00,,0826.9,4.99,0.00,29.8,26.5,00.0,39.0,31.1,17.6,0002.7,0028.73,0009.89,0007.73
2021-09-17 06:24:00,,0826.8,5.00,0.00,29.7,26.8,00.0,38.9,31.2,17.7,0002.6,0027.64,0009.96,0007.76
2021-09-17 06:25:00,,0826.9,5.01,0.00,29.7,27.2,00.0,38.9,31.2,17.7,0002.7,0026.67,0009.97,0007.75
2021-09-17 06:26:00,,0826.9,5.00,0.00,29.7,27.6,00.0,38.9,31.3,17.7,0002.8,0025.85,0009.94,0007.73
2021-09-17 06:27:00,,0827.0,5.00,0.00,29.7,27.9,00.0,38.9,31.4,17.7,0002.1,0026.02,0010.02,0007.72
2021-09-17 06:28:00,,0827.2,5.00,0.00,29.7,28.1,00.0,38.8,31.4,17.6,0002.0,0026.76,0010.12,0007.72
2021-09-17 06:29:00,,0827.1,5.00,0.00,29.7,28.3,00.0,38.8,31.4,17.6,0002.2,0027.28,0010.12,0007.72
2021-09-17 06:30:00,,0827.1,4.99,0.00,29.7,28.4,00.0,38.8,31.5,17.5,0002.4,0026.73,0010.12,0007.71
2021-09-17 06:31:00,,0827.1,5.01,0.00,29.8,28.6,00.0,38.9,31.5,17.4,0002.9,0027.47,0010.17,0007.73
2021-09-17 06:32:00,,0827.1,4.99,0.00,29.8,28.7,00.0,38.9,31.5,17.3,0002.8,0027.10,0010.16,0007.75
2021-09-17 06:33:00,,0827.2,5.01,0.00,29.8,28.7,00.0,38.9,31.6,17.3,0002.9,0026.01,0010.18,0007.76
2021-09-17 06:34:00,,0827.2,4.99,0.00,29.8,28.8,00.0,38.9,31.6,17.2,0003.2,0026.96,0010.17,0007.75
2021-09-17 06:35:00,,0827.2,5.00,0.00,29.8,28.8,00.0,38.9,31.6,17.3,0003.5,0026.60,0010.10,0007.74
2021-09-17 06:36:00,,0827.2,5.01,0.00,29.9,28.9,00.0,38.9,31.7,17.3,0003.7,0025.84,0010.09,0007.74
2021-09-17 06:37:00,,0827.3,4.99,0.00,29.9,29.0,00.0,38.9,31.7,17.3,0003.6,0025.86,0010.06,0007.74
2021-09-17 06:38:00,,0827.3,5.00,0.00,29.9,29.0,00.0,38.9,31.7,17.5,0003.9,0025.05,0009.95,0007.73
2021-09-17 06:39:00,,0827.3,5.00,0.00,29.9,29.0,00.0,39.0,31.7,17.6,0004.1,0024.24,0009.85,0007.72
2021-09-17 06:40:00,,0827.4,4.99,0.00,30.0,29.1,00.0,39.0,31.8,17.7,0003.9,0023.41,0009.87,0007.73
2021-09-17 06:41:00,,0827.4,5.01,0.00,30.0,29.1,00.0,39.0,31.8,17.7,0004.0,0022.43,0009.80,0007.73
2021-09-17 06:42:00,,0827.5,5.00,0.00,30.0,29.1,00.0,39.0,31.8,17.7,0003.5,0021.09,0009.70,0007.70
2021-09-17 06:43:00,,0827.5,4.99,0.00,30.0,29.2,00.0,39.0,31.9,17.7,0003.4,0020.75,0009.69,0007.69
2021-09-17 06:44:00,,0827.5,5.02,0.00,30.0,28.1,00.0,39.0,31.6,17.9,0003.1,0020.24,0009.64,0007.68
2021-09-17 06:45:00,,0827.5,4.99,0.00,29.9,26.4,00.0,39.0,31.1,18.1,0002.7,0019.48,0009.60,0007.67
2021-09-17 06:46:00,,0827.6,4.99,0.00,29.8,26.3,00.0,39.0,31.1,18.2,0002.8,0020.28,0009.61,0007.65
2021-09-17 06:47:00,,0827.7,5.01,0.00,29.7,26.7,00.0,38.9,31.1,18.4,0002.6,0021.39,0009.51,0007.63
2021-09-17 06:48:00,,0827.8,5.00,0.00,29.6,27.1,00.0,38.9,31.2,18.5,0002.6,0021.60,0009.50,0007.61
2021-09-17 06:49:00,,0827.8,5.00,0.00,29.6,27.4,00.0,38.9,31.2,18.6,0002.6,0022.62,0009.54,0007.59
2021-09-17 06:50:00,,0827.9,5.00,0.00,29.6,27.7,00.0,38.8,31.3,18.6,0002.4,0023.56,0009.53,0007.56
2021-09-17 06:51:00,,0828.0,4.99,0.00,29.6,27.9,00.0,38.8,31.3,18.7,0002.5,0024.47,0009.46,0007.52
2021-09-17 06:52:00,,0828.1,5.01,0.00,29.6,28.1,00.0,38.8,31.4,18.7,0002.4,0025.61,0009.41,0007.46
2021-09-17 06:53:00,,0828.2,4.99,0.00,29.7,28.3,00.0,38.8,31.4,18.8,0002.6,0026.51,0009.40,0007.41
2021-09-17 06:54:00,,0828.2,5.00,0.00,29.7,28.4,00.0,38.8,31.5,18.8,0002.7,0026.03,0009.36,0007.36
2021-09-17 06:55:00,,0828.2,4.99,0.00,29.7,28.5,00.0,38.8,31.5,18.8,0003.1,0026.03,0009.34,0007.30
2021-09-17 06:56:00,,0828.3,5.01,0.00,29.7,28.6,00.0,38.8,31.5,18.8,0003.5,0025.71,0009.27,0007.21
2021-09-17 06:57:00,,0828.4,4.99,0.00,29.7,28.6,00.0,38.8,31.5,18.9,0003.7,0025.59,0009.23,0007.14
2021-09-17 06:58:00,,0828.2,5.01,0.00,29.8,28.7,00.0,38.8,31.5,18.8,0003.8,0025.67,0009.25,0007.07
2021-09-17 06:59:00,,0828.2,5.00,0.00,29.8,28.8,00.0,38.8,31.6,18.8,0004.0,0026.20,0009.20,0007.01
